Showing default

SUPERVIEW NEO-2 03, 62079

Orbit data source: Space-Track

SUPERVIEW NEO-2 03, 62079 is a payload satellite owned by Siwei (CN) in SSO that was launched on Sun, 24 Nov 2024 UTC via a CHANG ZHENG 2C launch vehicle from the Jiuquan Satellite Launch Center, China (JSC). Payloads include a variety of satellites, spacecraft, and rockets equipped with specific instruments for various scientific and technological missions. These include communications satellites like Starlink; space stations such as the ISS; scientific satellites like the Hubble; Earth observation satellites from companies like Planet Labs, Umbra, and HawkEye 360; GPS; miniature CubeSats for education and research; and military/defense satellites.

Loading next visibility...
SUPERVIEW NEO-2 03 details
Identifier
62079, 2024-218B
Orbit
SSO
Last TLE update23 hours ago
Origin
Flag of CNSiwei (CN / PRC)
ManufacturerDFH
MissionOperational spacecraft
Bus & MotorSIWEI, Unknown motor
Mass600 kg wet, ~500 kg dry
Launch date (UTC)
2024-11-24 (1 month ago)
Launch vehicle
CHANG ZHENG 2C
Launch site
Jiuquan Satellite Launch Center, China (JSC)
Object type
Payload
Rocket body
Debris
Shape & HBRUnknown
Radar Cross SectionLarge (>1 m²)

Expand to show TLE details & history

TLE from 23 hours ago
0 SUPERVIEW NEO-2 03
1 62079U 24218B   24360.45080929  .00000065  00000-0  62068-5 0  9991
2 62079  97.4387   4.5087 0001455 108.2865 251.8528 15.19718064  4628
Epoch: 2024-12-25T10:49Z
Definitive object data (Epoch: 2024-12-25T10:49:09.922Z)
Latitude-0.00006°
Longitude107.77299°
Altitude510.093 km
Speed7.609 km/s
True Right ascension00h 18m 02s
True Declination0° 00' 00"
Sunlit
Object was in daylight at TLE epoch
Visualization TLE readout
Latitude-48.19388°
Longitude117.08612°
Altitude526.315 km
Speed7.598 km/s
Apparent Right ascension23h 14m 21s
Apparent Declination-46° 43' 18"
Sunlit
Object is in daylight
Visualization observer readout
Local Sidereal Time09:39:45
Azimuth240.524° WSW
Elevation-71.583°
Doppler factor1
Orbital elements
Apogee altitude504.661 km
Perigee altitude502.658 km
Semi-major axis6,881.797 km
Eccentricity0.0001455
Inclination97.4387°
RAAN4.5087°
Arg. of periapsis108.2865°
True anomaly251.83696°
Mean anomaly251.8528°
Eccentric anomaly251.84488°
Mean motion3.80181 °/min
BSTAR0.0000062068
Orbital period94.69 mins
Loading maneuver chart data...
Loading historical data...
Loading historical data...
Loading historical data...
Loading historical data...
Loading historical data...
Loading historical data...
Loading historical data...
Other satellites on launch #218 in the year 2024 (2024-11-24 UTC)

SUPERVIEW NEO-2 03 Visibility forecast

Observer location: undefined°, undefined

Span
Click to sort rows by Start time (UTC) header in descending order
Start Az.
Max El. time (UTC)
Max El. Az.
Max El.
End time (UTC)
End Az.
5 mins2024-12-26 12:40:35.278Z43.117° NE2024-12-26 12:43:35.278Z103.747° ESE22.18°2024-12-26 12:45:35.278Z143.713° SSE
4 mins2024-12-26 14:15:35.278Z320.992° NNW2024-12-26 14:16:35.278Z300.862° NW18.395°2024-12-26 14:19:35.278Z244.828° WSW
6 mins2024-12-27 00:52:35.278Z190.782° SSW2024-12-27 00:55:35.278Z286.348° WNW35.209°2024-12-27 00:58:35.278Z335.835° NNW
|